• In Belarus
  • List of Countries
  • For 7 days
  • Water Temperature
  • Satellite Maps
  • Weather Map
  • Weather Widgets
  • user-avatar
    Login

    Hourly Weather Ioannina

    Today, 20 September, Thursday

    Time Temperature Precipitation Wind Pressure Humidity
    00:00 +16°C° 0 mm 1 mps 690 mmHg 73%
    01:00 +16°C° 0 mm 1 mps 690 mmHg 74%
    02:00 +15°C° 0 mm 1 mps 690 mmHg 74%
    03:00 +15°C° 0 mm 1 mps 690 mmHg 75%
    04:00 +15°C° 0 mm 1 mps 689 mmHg 75%
    05:00 +16°C° 0 mm 1 mps 690 mmHg 72%
    06:00 +18°C° 0 mm 1 mps 690 mmHg 68%
    07:00 +19°C° 0 mm 1 mps 690 mmHg 65%
    08:00 +21°C° 0 mm 1 mps 691 mmHg 56%
    09:00 +24°C° 0 mm 1 mps 691 mmHg 48%
    10:00 +26°C° 0 mm 1 mps 692 mmHg 39%
    11:00 +27°C° 0 mm 1 mps 691 mmHg 38%
    12:00 +27°C° 0 mm 1 mps 691 mmHg 36%
    13:00 +28°C° 0 mm 2 mps 691 mmHg 34%
    14:00 +27°C° 0 mm 2 mps 691 mmHg 37%
    15:00 +26°C° 0 mm 2 mps 690 mmHg 40%
    16:00 +26°C° 0 mm 2 mps 690 mmHg 42%
    17:00 +24°C° 0 mm 1 mps 690 mmHg 50%
    18:00 +22°C° 0 mm 1 mps 690 mmHg 58%
    19:00 +20°C° 0 mm 1 mps 689 mmHg 66%
    20:00 +19°C° 0 mm 1 mps 689 mmHg 67%
    21:00 +19°C° 0 mm 1 mps 689 mmHg 68%
    22:00 +18°C° 0 mm 1 mps 689 mmHg 69%
    23:00 +18°C° 0 mm 1 mps 689 mmHg 69%

    Tomorrow, 21 September, Friday

    Time Temperature Precipitation Wind Pressure Humidity
    00:00 +16°C° 0 mm 1 mps 689 mmHg 69%
    01:00 +16°C° 0 mm 1 mps 689 mmHg 69%
    02:00 +16°C° 0 mm 1 mps 689 mmHg 69%
    03:00 +15°C° 0 mm 1 mps 689 mmHg 69%
    04:00 +15°C° 0 mm 1 mps 689 mmHg 68%
    05:00 +16°C° 0 mm 1 mps 689 mmHg 64%
    06:00 +18°C° 0 mm 1 mps 689 mmHg 59%
    07:00 +19°C° 0 mm 1 mps 690 mmHg 54%
    08:00 +21°C° 0 mm 1 mps 690 mmHg 47%
    09:00 +24°C° 0 mm 1 mps 691 mmHg 40%
    10:00 +26°C° 0 mm 1 mps 691 mmHg 33%
    11:00 +27°C° 0 mm 1 mps 691 mmHg 32%
    12:00 +27°C° 0 mm 2 mps 691 mmHg 31%
    13:00 +28°C° 0 mm 2 mps 691 mmHg 30%
    14:00 +27°C° 0 mm 2 mps 690 mmHg 33%
    15:00 +26°C° 0 mm 2 mps 690 mmHg 36%
    16:00 +26°C° 0 mm 2 mps 690 mmHg 39%
    17:00 +24°C° 0 mm 1 mps 690 mmHg 47%
    18:00 +21°C° 0 mm 1 mps 690 mmHg 55%
    19:00 +19°C° 0 mm 1 mps 689 mmHg 63%
    20:00 +19°C° 0 mm 1 mps 690 mmHg 64%
    21:00 +18°C° 0 mm 1 mps 690 mmHg 65%
    22:00 +18°C° 0 mm 1 mps 690 mmHg 66%
    23:00 +18°C° 0 mm 1 mps 690 mmHg 66%

    Day after tomorrow, 22 September, Saturday

    Time Temperature Precipitation Wind Pressure Humidity
    00:00 +16°C° 0 mm 1 mps 690 mmHg 66%
    01:00 +16°C° 0 mm 1 mps 690 mmHg 66%
    02:00 +16°C° 0 mm 1 mps 689 mmHg 66%
    03:00 +16°C° 0 mm 1 mps 689 mmHg 66%
    04:00 +16°C° 0 mm 1 mps 689 mmHg 65%
    05:00 +18°C° 0 mm 1 mps 689 mmHg 62%
    06:00 +19°C° 0 mm 1 mps 690 mmHg 58%
    07:00 +20°C° 0 mm 1 mps 690 mmHg 55%
    08:00 +22°C° 0 mm 1 mps 691 mmHg 48%
    09:00 +25°C° 0 mm 1 mps 691 mmHg 41%
    10:00 +27°C° 0 mm 1 mps 692 mmHg 35%
    11:00 +28°C° 0 mm 1 mps 692 mmHg 33%
    12:00 +28°C° 0 mm 2 mps 691 mmHg 32%
    13:00 +29°C° 0 mm 2 mps 691 mmHg 31%
    14:00 +28°C° 0 mm 2 mps 691 mmHg 34%
    15:00 +27°C° 0 mm 2 mps 691 mmHg 36%
    16:00 +27°C° 0 mm 2 mps 690 mmHg 39%
    17:00 +25°C° 0 mm 2 mps 690 mmHg 47%
    18:00 +23°C° 0 mm 1 mps 690 mmHg 55%
    19:00 +20°C° 0 mm 1 mps 690 mmHg 63%
    20:00 +20°C° 0 mm 1 mps 690 mmHg 66%
    21:00 +20°C° 0 mm 1 mps 690 mmHg 69%
    22:00 +19°C° 0 mm 1 mps 691 mmHg 72%
    23:00 +19°C° 0 mm 1 mps 690 mmHg 73%

    23 September, Sunday

    Time Temperature Precipitation Wind Pressure Humidity
    00:00 +19°C° 0 mm 1 mps 690 mmHg 73%
    01:00 +18°C° 0 mm 1 mps 690 mmHg 74%
    02:00 +18°C° 0 mm 1 mps 690 mmHg 73%
    03:00 +18°C° 0 mm 1 mps 690 mmHg 72%
    04:00 +18°C° 0 mm 1 mps 690 mmHg 72%
    05:00 +19°C° 0 mm 1 mps 690 mmHg 67%
    06:00 +20°C° 0 mm 1 mps 690 mmHg 63%
    07:00 +21°C° 0 mm 1 mps 691 mmHg 59%
    08:00 +24°C° 0 mm 1 mps 691 mmHg 51%
    09:00 +26°C° 0 mm 1 mps 692 mmHg 43%
    10:00 +29°C° 0 mm 1 mps 692 mmHg 35%
    11:00 +29°C° 0 mm 1 mps 692 mmHg 33%
    12:00 +30°C° 0 mm 1 mps 692 mmHg 32%
    13:00 +30°C° 0 mm 2 mps 692 mmHg 31%
    14:00 +29°C° 0 mm 2 mps 692 mmHg 33%
    15:00 +29°C° 0 mm 2 mps 691 mmHg 35%
    16:00 +28°C° 0 mm 2 mps 691 mmHg 38%
    17:00 +26°C° 0 mm 1 mps 691 mmHg 44%
    18:00 +23°C° 0 mm 1 mps 691 mmHg 51%
    19:00 +21°C° 0 mm 1 mps 690 mmHg 57%
    20:00 +21°C° 0 mm 1 mps 690 mmHg 59%
    21:00 +20°C° 0 mm 1 mps 690 mmHg 61%
    22:00 +20°C° 0 mm 1 mps 690 mmHg 63%
    23:00 +20°C° 0 mm 1 mps 690 mmHg 65%

    24 September, Monday

    Time Temperature Precipitation Wind Pressure Humidity
    00:00 +19°C° 0 mm 1 mps 689 mmHg 66%
    01:00 +17°C° 0 mm 0 mps 689 mmHg 68%
    02:00 +19°C° 0 mm 1 mps 689 mmHg 69%
    03:00 +18°C° 0 mm 1 mps 688 mmHg 71%
    04:00 +18°C° 0 mm 1 mps 688 mmHg 72%
    05:00 +19°C° 0 mm 1 mps 688 mmHg 69%
    06:00 +20°C° 0 mm 1 mps 688 mmHg 65%
    07:00 +21°C° 0 mm 1 mps 688 mmHg 62%
    08:00 +23°C° 0 mm 1 mps 688 mmHg 54%
    09:00 +25°C° 0 mm 1 mps 689 mmHg 45%
    10:00 +27°C° 0 mm 2 mps 689 mmHg 37%
    11:00 +27°C° 0 mm 2 mps 688 mmHg 35%
    12:00 +28°C° 0 mm 2 mps 688 mmHg 34%
    13:00 +28°C° 0 mm 3 mps 688 mmHg 33%
    14:00 +28°C° 0 mm 3 mps 687 mmHg 36%
    15:00 +27°C° 0 mm 2 mps 687 mmHg 39%
    16:00 +26°C° 0 mm 2 mps 686 mmHg 42%
    17:00 +24°C° 0 mm 2 mps 686 mmHg 51%
    18:00 +21°C° 0 mm 2 mps 686 mmHg 60%
    19:00 +20°C° 0 mm 1 mps 686 mmHg 70%
    20:00 +19°C° 0 mm 1 mps 686 mmHg 73%
    21:00 +19°C° 0 mm 1 mps 686 mmHg 75%
    22:00 +18°C° 0 mm 1 mps 686 mmHg 78%
    23:00 +18°C° 0 mm 1 mps 686 mmHg 78%

    25 September, Tuesday

    Time Temperature Precipitation Wind Pressure Humidity
    00:00 +16°C° 0 mm 1 mps 686 mmHg 78%
    01:00 +16°C° 0 mm 1 mps 686 mmHg 77%
    02:00 +15°C° 0 mm 1 mps 686 mmHg 76%
    03:00 +15°C° 0 mm 2 mps 686 mmHg 74%
    04:00 +14°C° 0 mm 2 mps 686 mmHg 72%
    05:00 +15°C° 0 mm 2 mps 687 mmHg 66%
    06:00 +15°C° 0 mm 2 mps 687 mmHg 61%
    07:00 +16°C° 0 mm 2 mps 687 mmHg 55%
    08:00 +18°C° 0 mm 2 mps 688 mmHg 49%
    09:00 +20°C° 0 mm 2 mps 688 mmHg 44%
    10:00 +23°C° 0 mm 2 mps 689 mmHg 38%
    11:00 +23°C° 0 mm 2 mps 689 mmHg 37%
    12:00 +24°C° 0 mm 2 mps 689 mmHg 37%
    13:00 +25°C° 0 mm 2 mps 689 mmHg 36%
    14:00 +22°C° 0 mm 3 mps 688 mmHg 38%
    15:00 +21°C° 0 mm 3 mps 688 mmHg 41%
    16:00 +20°C° 0 mm 3 mps 688 mmHg 43%
    17:00 +19°C° 0 mm 3 mps 688 mmHg 45%
    18:00 +17°C° 0 mm 3 mps 688 mmHg 48%
    19:00 +16°C° 0 mm 3 mps 688 mmHg 50%
    20:00 +14°C° 0 mm 3 mps 688 mmHg 51%
    21:00 +13°C° 0 mm 3 mps 688 mmHg 51%
    22:00 +12°C° 0 mm 3 mps 688 mmHg 51%
    23:00 +11°C° 0 mm 3 mps 688 mmHg 50%
    Show more